Location: Northern Prairie Star Party
(53.2167°N, 112.5333°W)
Time: 10:40:17
(UTC-06:00)

Amateur Radio Satellites - All Passes

Search period start: 30 October 2014 10:10
Search period end: 31 October 2014 10:10
Location: Northern Prairie Star Party, 53.2167°N, 112.5333°W

Satellite Date Start Highest point End Downlink Frequencies (MHz)
Time Altitude Azimuth
KITSAT 1 30 Oct 10:25:39 10:29:54 15° 98° (E) 10:34:09 435.175 FM
SO-67 30 Oct 10:30:15 10:30:57 11° 304° (WNW) 10:31:39 435.3500 MHz FM
UKube-1 30 Oct 10:44:31 10:48:25 30° 96° (E) 10:52:17 145.840 MHz, 145.915 MHz
JAS-2 30 Oct 10:51:07 10:53:53 12° 329° (NNW) 10:56:41 435.800 - 435.900 CW/SSB, 435.910 FM
ZACube-1 30 Oct 10:51:44 10:54:36 18° 89° (E) 10:57:26 437.345 MHz
Saudisat 1A 30 Oct 11:12:47 11:15:59 19° 357° (N) 11:19:11 436.775 MHz
Sapphire 30 Oct 11:18:08 11:23:33 60° 44° (NE) 11:28:55 437.095 MHz 1200 baud AX-25 AFSK
Oscar 11 30 Oct 11:20:21 11:24:40 65° 102° (ESE) 11:28:57 145.825 FM, Beacon 2401.500 USB
HO-68 30 Oct 11:26:20 11:33:32 74° 293° (WNW) 11:40:42 435.675 MHz FM
AO-7 30 Oct 11:28:05 11:30:41 12° 358° (N) 11:33:18 29.400 - 29.500 MHz
SO-50 30 Oct 11:28:28 11:30:42 14° 110° (ESE) 11:32:58 436.795 FM
FUNcube-1 30 Oct 11:34:11 11:38:14 41° 98° (E) 11:42:10 145.950 - 145.970 MHz USB
PCSat 30 Oct 11:40:00 11:45:29 83° 50° (NE) 11:50:55 145.825 MHz
Oscar 16 30 Oct 12:07:46 12:10:52 16° 50° (NE) 12:13:58 437.025 USB, Beacon 2401.1428
KITSAT 1 30 Oct 12:15:47 12:23:38 59° 121° (ESE) 12:31:32 435.175 FM
UKube-1 30 Oct 12:20:37 12:24:42 39° 295° (WNW) 12:28:45 145.840 MHz, 145.915 MHz
JAS-1B 30 Oct 12:21:24 12:25:36 22° 50° (NE) 12:29:56 435.800 - 435.900 CW/SSB
ZACube-1 30 Oct 12:27:15 12:31:28 64° 289° (WNW) 12:35:36 437.345 MHz
ISS 30 Oct 12:38:39 12:41:40 33° 155° (SSE) 12:44:43 145.800 FM
Uribyol 2 30 Oct 12:38:59 12:41:51 15° 48° (NE) 12:44:42 436.500 FM
ITAMSAT 1 30 Oct 12:46:22 12:49:27 16° 49° (NE) 12:52:32 435.822 SSB
AO-Echo 30 Oct 12:51:15 12:54:47 19° 53° (NE) 12:58:24 ?
Saudisat 1A 30 Oct 12:53:09 12:56:53 26° 21° (NNE) 13:00:37 436.775 MHz
Oscar 11 30 Oct 12:57:18 13:00:28 20° 302° (WNW) 13:03:37 145.825 FM, Beacon 2401.500 USB
Oscar 19 30 Oct 12:58:09 13:02:43 33° 61° (ENE) 13:07:17 437.125 CW, 437.150 USB
Sapphire 30 Oct 13:01:55 13:06:45 33° 246° (WSW) 13:11:33 437.095 MHz 1200 baud AX-25 AFSK
SO-50 30 Oct 13:05:54 13:10:26 72° 131° (SE) 13:15:08 436.795 FM
FUNcube-1 30 Oct 13:10:52 13:14:29 27° 298° (WNW) 13:18:02 145.950 - 145.970 MHz USB
HO-68 30 Oct 13:14:51 13:20:14 24° 316° (NW) 13:25:37 435.675 MHz FM
AO-7 30 Oct 13:15:27 13:20:13 17° 25° (NNE) 13:24:59 29.400 - 29.500 MHz
PCSat 30 Oct 13:24:12 13:28:19 22° 251° (WSW) 13:32:26 145.825 MHz
AO-27 30 Oct 13:31:44 13:36:16 31° 59° (ENE) 13:40:50 436.795 MHz FM
Gurwin Techsat 1B 30 Oct 13:41:41 13:45:46 23° 55° (NE) 13:49:52 435.225 FM
Oscar 16 30 Oct 13:44:17 13:49:25 73° 71° (ENE) 13:54:34 437.025 USB, Beacon 2401.1428
TMSAT-1 30 Oct 13:49:04 13:52:56 21° 54° (NE) 13:56:48 436.925 FM
UOSAT-12 30 Oct 13:56:11 14:00:16 31° 120° (ESE) 14:04:26 437.025 FM, 437.400 FM
ZACube-1 30 Oct 14:05:45 14:07:03 11° 309° (NW) 14:08:20 437.345 MHz
JAS-1B 30 Oct 14:09:55 14:15:37 85° 253° (WSW) 14:21:31 435.800 - 435.900 CW/SSB
KITSAT 1 30 Oct 14:11:20 14:19:15 55° 325° (NW) 14:27:12 435.175 FM
ISS 30 Oct 14:14:47 14:18:06 66° 175° (S) 14:21:26 145.800 FM
Uribyol 2 30 Oct 14:15:14 14:20:24 64° 69° (ENE) 14:25:36 436.500 FM
ITAMSAT 1 30 Oct 14:22:54 14:28:05 69° 70° (ENE) 14:33:19 435.822 SSB
AO-Echo 30 Oct 14:27:49 14:32:52 88° 73° (ENE) 14:38:07 ?
Saudisat 1A 30 Oct 14:32:39 14:37:07 76° 44° (NE) 14:41:32 436.775 MHz
Oscar 19 30 Oct 14:37:00 14:41:57 47° 261° (W) 14:46:55 437.125 CW, 437.150 USB
Uosat F 30 Oct 14:43:46 14:45:42 12° 46° (NE) 14:47:37 435.120 FM
SO-50 30 Oct 14:47:11 14:51:24 33° 333° (NNW) 14:55:44 436.795 FM
AO-7 30 Oct 15:03:25 15:10:55 40° 51° (NE) 15:18:26 29.400 - 29.500 MHz
AO-27 30 Oct 15:10:28 15:15:35 54° 259° (W) 15:20:44 436.795 MHz FM
Gurwin Techsat 1B 30 Oct 15:19:55 15:25:14 78° 255° (WSW) 15:30:36 435.225 FM
Oscar 16 30 Oct 15:25:31 15:29:20 21° 271° (W) 15:33:11 437.025 USB, Beacon 2401.1428
TMSAT-1 30 Oct 15:26:56 15:32:15 87° 254° (WSW) 15:37:37 436.925 FM
UOSAT-12 30 Oct 15:35:34 15:40:13 60° 321° (NW) 15:44:56 437.025 FM, 437.400 FM
ISS 30 Oct 15:51:24 15:54:40 51° 195° (SSW) 15:57:55 145.800 FM
JAS-2 30 Oct 15:54:32 15:59:30 22° 45° (NE) 16:04:50 435.800 - 435.900 CW/SSB, 435.910 FM
Uribyol 2 30 Oct 15:56:06 16:00:19 24° 269° (W) 16:04:34 436.500 FM
ITAMSAT 1 30 Oct 16:04:02 16:08:06 23° 270° (W) 16:12:11 435.822 SSB
JAS-1B 30 Oct 16:04:15 16:07:28 15° 276° (W) 16:10:44 435.800 - 435.900 CW/SSB
AO-Echo 30 Oct 16:09:10 16:12:24 17° 274° (W) 16:15:43 ?
KITSAT 1 30 Oct 16:09:13 16:16:26 34° 353° (N) 16:23:40 435.175 FM
Saudisat 1A 30 Oct 16:12:54 16:16:15 21° 244° (WSW) 16:19:35 436.775 MHz
Uosat F 30 Oct 16:18:34 16:23:26 52° 66° (ENE) 16:28:21 435.120 FM
SO-50 30 Oct 16:29:39 16:33:14 21° 357° (N) 16:36:53 436.795 FM
Hamsat 30 Oct 16:34:09 16:35:52 12° 53° (NE) 16:37:35 145.90 MHz
AO-7 30 Oct 16:55:05 17:03:20 70° 253° (WSW) 17:11:39 29.400 - 29.500 MHz
Gurwin Techsat 1B 30 Oct 17:03:17 17:06:07 14° 276° (W) 17:08:59 435.225 FM
TMSAT-1 30 Oct 17:09:42 17:12:59 16° 274° (W) 17:16:17 436.925 FM
UOSAT-12 30 Oct 17:17:20 17:21:14 25° 344° (NNW) 17:25:10 437.025 FM, 437.400 FM
ISS 30 Oct 17:28:28 17:30:52 18° 214° (SW) 17:33:16 145.800 FM
JAS-2 30 Oct 17:36:51 17:43:19 71° 69° (ENE) 17:50:40 435.800 - 435.900 CW/SSB, 435.910 FM
Uosat F 30 Oct 17:58:09 18:02:29 29° 266° (W) 18:06:52 435.120 FM
SO-67 30 Oct 18:03:38 18:04:17 10° 56° (NE) 18:04:56 435.3500 MHz FM
KITSAT 1 30 Oct 18:06:28 18:14:02 40° 22° (NNE) 18:21:33 435.175 FM
Hamsat 30 Oct 18:06:56 18:11:06 73° 73° (ENE) 18:15:18 145.90 MHz
SO-50 30 Oct 18:11:03 18:15:11 28° 21° (NNE) 18:19:22 436.795 FM
OPAL 30 Oct 18:16:58 18:21:12 27° 96° (E) 18:25:23 ?
HO-68 30 Oct 18:30:48 18:34:38 16° 34° (NE) 18:38:29 435.675 MHz FM
AO-7 30 Oct 18:52:23 18:57:45 18° 276° (W) 19:03:09 29.400 - 29.500 MHz
UOSAT-12 30 Oct 18:59:08 19:02:49 22° 8° (N) 19:06:30 437.025 FM, 437.400 FM
JAS-2 30 Oct 19:23:27 19:29:05 30° 272° (W) 19:35:19 435.800 - 435.900 CW/SSB, 435.910 FM
Oscar 10/S400 30 Oct 19:29:52 19:54:39 40° 184° (S) 00:41:07 145.825 - 145.975 CW/USB, Beacon 145.810 USB
SO-67 30 Oct 19:33:13 19:36:39 84° 75° (ENE) 19:40:07 435.3500 MHz FM
Hamsat 30 Oct 19:45:04 19:47:34 15° 272° (W) 19:50:05 145.90 MHz
SO-50 30 Oct 19:51:35 19:56:25 78° 44° (NE) 20:01:19 436.795 FM
OPAL 30 Oct 19:55:32 20:00:23 54° 296° (WNW) 20:05:11 ?
AO-40 30 Oct 20:01:38 01:02:29 30° 160° (SSE) 02:50:17 Beacon 2401.320
KITSAT 1 30 Oct 20:02:20 20:10:29 85° 48° (NE) 20:18:35 435.175 FM
STRAND 1 30 Oct 20:11:30 20:16:31 48° 99° (E) 20:21:28 ?
UKube-1 30 Oct 20:13:13 20:14:35 11° 49° (NE) 20:15:56 145.840 MHz, 145.915 MHz
HO-68 30 Oct 20:13:59 20:20:40 44° 57° (ENE) 20:27:24 435.675 MHz FM
RS-15 30 Oct 20:30:19 20:37:31 21° 98° (E) 20:44:42 29.354 - 29.394 USB, Beacon 29.352 USB
UOSAT-12 30 Oct 20:39:37 20:44:07 40° 32° (NNE) 20:48:34 437.025 FM, 437.400 FM
Oscar 11 30 Oct 20:46:57 20:49:51 18° 57° (ENE) 20:52:47 145.825 FM, Beacon 2401.500 USB
FUNcube-1 30 Oct 21:02:42 21:04:53 14° 53° (NE) 21:07:02 145.950 - 145.970 MHz USB
SO-50 30 Oct 21:32:46 21:36:34 23° 244° (WSW) 21:40:23 436.795 FM
OPAL 30 Oct 21:36:08 21:38:17 13° 317° (NW) 21:40:26 ?
UKube-1 30 Oct 21:45:37 21:49:54 59° 69° (ENE) 21:54:13 145.840 MHz, 145.915 MHz
STRAND 1 30 Oct 21:50:59 21:55:35 33° 299° (WNW) 22:00:09 ?
ZACube-1 30 Oct 21:53:36 21:57:37 33° 64° (ENE) 22:01:33 437.345 MHz
KITSAT 1 30 Oct 21:58:20 22:05:09 31° 251° (WSW) 22:11:56 435.175 FM
HO-68 30 Oct 22:01:20 22:08:19 54° 259° (W) 22:15:22 435.675 MHz FM
UOSAT-12 30 Oct 22:19:50 22:24:28 54° 233° (SW) 22:29:01 437.025 FM, 437.400 FM
Oscar 11 30 Oct 22:21:15 22:25:34 75° 256° (WSW) 22:29:55 145.825 FM, Beacon 2401.500 USB
FUNcube-1 30 Oct 22:36:04 22:40:34 74° 73° (ENE) 22:44:59 145.950 - 145.970 MHz USB
RS-15 30 Oct 22:36:53 22:47:39 68° 123° (ESE) 22:58:28 29.354 - 29.394 USB, Beacon 29.352 USB
UKube-1 30 Oct 23:23:11 23:26:28 20° 269° (W) 23:29:46 145.840 MHz, 145.915 MHz
ZACube-1 30 Oct 23:29:45 23:33:58 38° 263° (W) 23:38:07 437.345 MHz
MaSat-1 30 Oct 23:40:24 23:44:08 73° 122° (ESE) 23:47:27 437.345 MHz
HO-68 30 Oct 23:55:17 23:57:47 12° 281° (WNW) 00:00:18 435.675 MHz FM
Oscar 11 31 Oct 00:01:30 00:02:32 11° 276° (W) 00:03:35 145.825 FM, Beacon 2401.500 USB
FUNcube-1 31 Oct 00:14:29 00:17:26 17° 271° (W) 00:20:21 145.950 - 145.970 MHz USB
RS-15 31 Oct 00:49:40 01:00:26 59° 332° (NNW) 01:11:23 29.354 - 29.394 USB, Beacon 29.352 USB
MaSat-1 31 Oct 01:17:24 01:19:50 18° 320° (NW) 01:22:07 437.345 MHz
JAS-1B 31 Oct 01:45:44 01:50:53 21° 88° (E) 01:56:39 435.800 - 435.900 CW/SSB
Oscar 16 31 Oct 01:50:46 01:53:56 16° 86° (E) 01:57:05 437.025 USB, Beacon 2401.1428
Sapphire 31 Oct 02:09:39 02:11:54 13° 103° (ESE) 02:14:09 437.095 MHz 1200 baud AX-25 AFSK
Uribyol 2 31 Oct 02:23:08 02:25:51 14° 85° (E) 02:28:32 436.500 FM
AO-Echo 31 Oct 02:29:23 02:33:18 21° 88° (E) 02:37:12 ?
PCSat 31 Oct 02:29:29 02:33:17 20° 108° (ESE) 02:37:05 145.825 MHz
ITAMSAT 1 31 Oct 02:30:42 02:33:46 16° 86° (E) 02:36:49 435.822 SSB
Oscar 19 31 Oct 02:42:00 02:46:48 39° 97° (E) 02:51:35 437.125 CW, 437.150 USB
RS-15 31 Oct 03:04:42 03:15:10 46° 5° (N) 03:25:54 29.354 - 29.394 USB, Beacon 29.352 USB
AO-27 31 Oct 03:17:08 03:21:56 35° 96° (E) 03:26:42 436.795 MHz FM
Oscar 16 31 Oct 03:28:53 03:34:03 89° 104° (ESE) 03:39:11 437.025 USB, Beacon 2401.1428
Gurwin Techsat 1B 31 Oct 03:30:07 03:34:38 27° 92° (E) 03:39:07 435.225 FM
JAS-1B 31 Oct 03:35:32 03:42:18 84° 107° (ESE) 03:50:27 435.800 - 435.900 CW/SSB
TMSAT-1 31 Oct 03:36:55 03:41:12 24° 91° (E) 03:45:27 436.925 FM
Sapphire 31 Oct 03:48:57 03:54:17 63° 123° (ESE) 03:59:40 437.095 MHz 1200 baud AX-25 AFSK
OPAL 31 Oct 04:00:47 04:04:31 21° 51° (NE) 04:08:14 ?
Uribyol 2 31 Oct 04:00:58 04:06:14 78° 105° (ESE) 04:11:25 436.500 FM
AO-Echo 31 Oct 04:07:19 04:12:41 78° 288° (WNW) 04:17:59 ?
ITAMSAT 1 31 Oct 04:08:49 04:14:06 84° 106° (ESE) 04:19:19 435.822 SSB
PCSat 31 Oct 04:10:34 04:16:01 89° 128° (SE) 04:21:29 145.825 MHz
Oscar 19 31 Oct 04:21:27 04:26:11 39° 297° (WNW) 04:30:55 437.125 CW, 437.150 USB
JAS-2 31 Oct 04:43:26 04:44:17 10° 72° (ENE) 04:45:07 435.800 - 435.900 CW/SSB, 435.910 FM
AO-7 31 Oct 04:49:45 04:56:48 29° 91° (E) 05:03:48 29.400 - 29.500 MHz
AO-27 31 Oct 04:56:37 05:01:35 45° 296° (WNW) 05:06:31 436.795 MHz FM
Oscar 16 31 Oct 05:09:11 05:12:47 20° 307° (NW) 05:16:23 437.025 USB, Beacon 2401.1428
Gurwin Techsat 1B 31 Oct 05:09:44 05:14:58 58° 292° (WNW) 05:20:10 435.225 FM
TMSAT-1 31 Oct 05:16:18 05:21:35 65° 291° (WNW) 05:26:50 436.925 FM
RS-15 31 Oct 05:18:32 05:29:34 69° 36° (NE) 05:41:01 29.354 - 29.394 USB, Beacon 29.352 USB
JAS-1B 31 Oct 05:27:01 05:32:29 28° 306° (NW) 05:38:43 435.800 - 435.900 CW/SSB
Sapphire 31 Oct 05:33:00 05:38:03 38° 325° (NW) 05:43:07 437.095 MHz 1200 baud AX-25 AFSK
OPAL 31 Oct 05:37:46 05:42:53 84° 251° (WSW) 05:47:57 ?
Uribyol 2 31 Oct 05:41:13 05:45:12 23° 305° (NW) 05:49:10 436.500 FM
AO-Echo 31 Oct 05:47:11 05:50:41 18° 308° (NW) 05:54:10 ?
ITAMSAT 1 31 Oct 05:49:10 05:53:02 21° 306° (NW) 05:56:52 435.822 SSB
PCSat 31 Oct 05:55:20 06:00:06 30° 331° (NNW) 06:04:53 145.825 MHz
STRAND 1 31 Oct 05:55:55 06:00:04 25° 57° (ENE) 06:04:14 ?
Uosat F 31 Oct 05:58:27 06:03:27 57° 101° (ESE) 06:08:25 435.120 FM
MaSat-1 31 Oct 06:10:12 06:10:38 10° 32° (NNE) 06:11:05 437.345 MHz
JAS-2 31 Oct 06:24:00 06:31:26 44° 94° (E) 06:38:45 435.800 - 435.900 CW/SSB, 435.910 FM
Saudisat 1A 31 Oct 06:24:42 06:28:07 23° 117° (ESE) 06:31:33 436.775 MHz
AO-27 31 Oct 06:38:30 06:39:54 11° 317° (NW) 06:41:17 436.795 MHz FM
AO-7 31 Oct 06:42:09 06:50:31 83° 294° (WNW) 06:58:53 29.400 - 29.500 MHz
Gurwin Techsat 1B 31 Oct 06:51:17 06:53:56 14° 313° (NW) 06:56:34 435.225 FM
TMSAT-1 31 Oct 06:57:37 07:00:36 15° 311° (NW) 07:03:35 436.925 FM
Sapphire 31 Oct 07:19:01 07:22:59 20° 350° (N) 07:26:57 437.095 MHz 1200 baud AX-25 AFSK
OPAL 31 Oct 07:19:36 07:22:31 15° 271° (W) 07:25:27 ?
Hamsat 31 Oct 07:22:03 07:26:15 64° 102° (ESE) 07:30:27 145.90 MHz
RS-15 31 Oct 07:31:12 07:41:46 53° 243° (WSW) 07:52:46 29.354 - 29.394 USB, Beacon 29.352 USB
STRAND 1 31 Oct 07:33:45 07:38:52 67° 257° (WSW) 07:44:03 ?
Uosat F 31 Oct 07:37:42 07:41:59 28° 301° (WNW) 07:46:15 435.120 FM
PCSat 31 Oct 07:41:22 07:45:13 19° 357° (N) 07:49:03 145.825 MHz
MaSat-1 31 Oct 07:43:57 07:46:38 83° 56° (NE) 07:49:04 437.345 MHz
Saudisat 1A 31 Oct 08:02:53 08:07:17 72° 318° (NW) 08:11:43 436.775 MHz
JAS-2 31 Oct 08:09:03 08:16:40 59° 295° (WNW) 08:24:15 435.800 - 435.900 CW/SSB, 435.910 FM
SO-67 31 Oct 08:23:14 08:26:32 41° 98° (E) 08:29:49 435.3500 MHz FM
AO-7 31 Oct 08:35:32 08:42:22 30° 317° (NW) 08:49:13 29.400 - 29.500 MHz
Hamsat 31 Oct 08:58:47 09:01:50 20° 301° (WNW) 09:04:53 145.90 MHz
Sapphire 31 Oct 09:04:06 09:08:18 22° 16° (NNE) 09:12:31 437.095 MHz 1200 baud AX-25 AFSK
STRAND 1 31 Oct 09:17:13 09:19:05 12° 277° (W) 09:20:57 ?
HO-68 31 Oct 09:22:23 09:28:00 24° 88° (E) 09:33:35 435.675 MHz FM
PCSat 31 Oct 09:25:58 09:30:28 25° 23° (NNE) 09:34:57 145.825 MHz
Saudisat 1A 31 Oct 09:43:52 09:47:33 25° 340° (NNW) 09:51:14 436.775 MHz
RS-15 31 Oct 09:46:20 09:51:20 14° 267° (W) 09:56:25 29.354 - 29.394 USB, Beacon 29.352 USB
JAS-2 31 Oct 09:55:01 10:00:16 20° 317° (NW) 10:05:35 435.800 - 435.900 CW/SSB, 435.910 FM
SO-67 31 Oct 09:56:43 09:59:17 20° 297° (WNW) 10:01:51 435.3500 MHz FM
Oscar 11 31 Oct 10:04:00 10:06:11 14° 86° (E) 10:08:22 145.825 FM, Beacon 2401.500 USB
